www.pogodaiklimat.ru

Архив погоды в Зелёна-Гуре (Польша)

Время
(UTC), дата
19 13.05
20 13.05
21 13.05
22 13.05
23 13.05
00 14.05
01 14.05
02 14.05
03 14.05
04 14.05
05 14.05
06 14.05
07 14.05
08 14.05
09 14.05
10 14.05
11 14.05
12 14.05
13 14.05
14 14.05
15 14.05
16 14.05
17 14.05
18 14.05
19 14.05
20 14.05
21 14.05
22 14.05
23 14.05
00 15.05
01 15.05
02 15.05
03 15.05
04 15.05
05 15.05
06 15.05
07 15.05
08 15.05
09 15.05
10 15.05
11 15.05
12 15.05
13 15.05
14 15.05
15 15.05
16 15.05
17 15.05
18 15.05
19 15.05
20 15.05
21 15.05
22 15.05
23 15.05
00 16.05
01 16.05
02 16.05
03 16.05
04 16.05
05 16.05
06 16.05
07 16.05
08 16.05
09 16.05
10 16.05
11 16.05
12 16.05
13 16.05
14 16.05
15 16.05
16 16.05
17 16.05
18 16.05
19 16.05
20 16.05
21 16.05
22 16.05
23 16.05
00 17.05
01 17.05
02 17.05
03 17.05
04 17.05
05 17.05
06 17.05
07 17.05
08 17.05
09 17.05
10 17.05
11 17.05
12 17.05
13 17.05
14 17.05
15 17.05
16 17.05
17 17.05
18 17.05
19 17.05
20 17.05
21 17.05
22 17.05
23 17.05
00 18.05
01 18.05
02 18.05
03 18.05
04 18.05
05 18.05
06 18.05
07 18.05
08 18.05
09 18.05
10 18.05
11 18.05
12 18.05
13 18.05
14 18.05
15 18.05
16 18.05
17 18.05
18 18.05
19 18.05
20 18.05
21 18.05
22 18.05
23 18.05
00 19.05
01 19.05
02 19.05
03 19.05
04 19.05
05 19.05
06 19.05
07 19.05
08 19.05
09 19.05
10 19.05
11 19.05
12 19.05
13 19.05
14 19.05
15 19.05
16 19.05
17 19.05
18 19.05
19 19.05
20 19.05
21 19.05
22 19.05
23 19.05
00 20.05
01 20.05
02 20.05
03 20.05
04 20.05
05 20.05
06 20.05
07 20.05
08 20.05
09 20.05
10 20.05
11 20.05
12 20.05
13 20.05
14 20.05
15 20.05
16 20.05
17 20.05
18 20.05
Ветер
(напр.,м/с)
Видим. Явления Облачность Т
(С)
Тd
(С)
f
(%)
Тe
(С)
Тes
(С)
Комфортность P
(гПа)
Po
(гПа)
Тmin
(С)
Tmax
(С)
R
(мм)
R24
(мм)
S
(см)
В 3 45 км 1/0
[Ci fib]
+17.8 +0.9 32 +18 +18 1016.1 993.4
В 3 45 км 1/0
[Ci fib]
+17.1 -0.2 31 +17 +17 1016.2 993.4
В 3 30 км н/о +16.0 +0.1 34 +16 +16 1016.3 993.4
В 3 40 км н/о +15.0 0.0 36 +15 +15 1016.4 993.4
В 2 30 км н/о +13.6 +0.6 41 +13 +13 1016.3 993.2
В 2 30 км н/о +12.9 +0.3 42 +12 +12 1015.9 992.8
ЮВ 2 30 км н/о +12.4 +0.5 44 +12 +12 1015.9 992.7
ЮВ 2 35 км н/о +11.5 +0.6 47 +11 +11 1015.8 992.6
ЮВ 2 30 км н/о +11.0 +0.7 49 +10 +10 1016.0 992.7
ЮВ 2 30 км н/о +10.9 +0.9 50 +10 +10 1016.3 993.0
ЮВ 3 35 км ясно +12.0 +1.3 48 +11 +12 1016.3 993.1
ЮВ 3 30 км ясно +14.4 +2.3 44 +14 +17 1016.2 993.2 +10.8 +19.5
ЮВ 3 30 км 1/0
[Ci fib]
+17.0 +2.2 37 +17 +23 1016.3 993.5
ЮВ 4-9 {9} 30 км 1/0
[Ci fib]
+18.9 +0.9 30 +19 +26 1016.0 993.4
ЮВ 4-9 {9} 30 км 1/0
[Ci fib]
+20.0 -0.1 26 +20 +29 1015.9 993.3
ЮВ 4 {9} 30 км 1/0
[Ci fib]
+21.3 +1.5 27 +21 +31 комфорт 1015.6 993.1
В 3-8 {8} 30 км 1/0
[Ci fib]
+21.8 +0.9 25 +21 +34 комфорт 1015.2 992.8
В 5-11 {11} 30 км 1/0
[Ci fib]
+22.2 +0.7 24 +22 +30 комфорт 1015.0 992.6
ЮВ 3 {8} 30 км 1/0
[Ci fib]
+23.0 +1.9 25 +22 +33 комфорт 1014.2 991.9
ЮВ 4 {9} 30 км ясно +23.0 +0.1 22 +22 +29 комфорт 1013.8 991.5
В 3 {10} 35 км ясно +23.1 +1.4 24 +22 +28 комфорт 1013.5 991.2
В 4 {9} 35 км ясно +22.9 +1.2 24 +22 +25 комфорт 1013.2 990.9
В 3 {8} 35 км ясно +22.2 +1.2 25 +22 +23 комфорт 1013.2 990.9
В 2 {10} 35 км ясно +21.1 +1.4 27 +21 +21 комфорт 1013.5 991.1 +14.4 +23.5
В 3 35 км ясно +19.2 +2.5 33 +20 +20 1013.8 991.2
В 4 45 км ясно +18.4 +3.0 36 +18 +18 1014.1 991.5
В 2-7 {8} 35 км н/о +17.3 +3.2 39 +18 +18 1014.2 991.5
В 2 {7} 40 км н/о +16.0 +3.1 42 +16 +16 1014.5 991.7
В 2 {7} 30 км н/о +15.0 +3.5 46 +15 +15 1014.7 991.8
ЮВ 3 {8} 28 км н/о +14.5 +3.3 47 +14 +14 1014.8 991.8
ЮВ 2 30 км н/о +13.5 +3.6 51 +13 +13 1014.8 991.8
ЮВ 3 30 км н/о +12.8 +3.4 53 +12 +12 1014.8 991.7
В 2 35 км н/о +12.1 +3.3 55 +11 +11 1015.0 991.8
ЮВ 2 28 км н/о +11.9 +3.4 56 +11 +11 1015.3 992.1
ЮВ 3-8 {8} 20 км 1/0
[Ci fib]
+12.7 +3.9 55 +12 +13 1015.2 992.1
ЮВ 4 {8} 40 км 1/0
[Ci fib]
+15.0 +4.1 48 +14 +17 1015.3 992.4 +11.8 +21.1
ЮВ 4-10 {10} 40 км 1/0
[Ci fib]
+17.2 +3.1 39 +17 +22 1015.4 992.6
ЮВ 5-10 {12} 40 км 1/0
[Ci fib]
+18.6 +3.2 36 +18 +24 1015.3 992.6
В 4-10 {12} 40 км 1/0
[Ci fib]
+19.9 +3.6 34 +20 +29 1014.8 992.3
В 5 {10} 40 км 1/1 2000 м
[Cu hum Ci fib]
+20.9 +3.6 32 +21 +29 комфорт 1014.7 992.2
В 4-12 {12} 40 км 1/1 2000 м
[Cu hum Ci fib]
+21.9 +3.5 30 +22 +32 комфорт 1014.2 991.8
ЮВ 4-10 {12} 40 км 1/1 2000 м
[Cu hum Ci fib]
+22.7 +3.7 29 +23 +32 комфорт 1013.9 991.6
ЮВ 4-10 {11} 40 км 3/1 2000 м
[Cu hum Ci fib]
+22.9 +4.4 30 +23 +31 комфорт 1013.4 991.1
В 4-9 {9} 40 км 3/1 2000 м
[Cu hum Ci fib]
+23.1 +4.6 30 +23 +29 комфорт 1013.1 990.8
ЮВ 4-9 {11} 40 км 3/1 2000 м
[Cu hum Ci fib]
+22.9 +3.9 29 +23 +27 комфорт 1013.0 990.7
В 3-8 {10} 30 км 3/1 2000 м
[Cu hum Ci fib]
+22.9 +3.4 28 +23 +25 комфорт 1012.8 990.5
В 3-8 {9} 40 км 1/1 2000 м
[Sc diur, vesp Ci fib]
+22.0 +3.1 29 +22 +23 комфорт 1012.7 990.4
В 3-8 {11} 40 км 1/1 2000 м
[Sc diur, vesp Ci fib]
+20.7 +2.5 30 +21 +22 комфорт 1013.0 990.6 +15.0 +23.7
В 2 {8} 40 км 1/1 2000 м
[Sc diur, vesp Ci fib]
+19.3 +2.2 32 +20 +20 1013.5 990.9
В 2 {8} 40 км 1/0
[Ci fib]
+18.0 +1.9 34 +19 +19 1014.1 991.4
В 2 {8} 35 км н/о +16.7 +2.3 38 +17 +17 1014.5 991.7
ЮВ 3 {8} 30 км н/о +15.9 +2.3 40 +16 +16 1014.5 991.7
ЮВ 3-8 {8} 30 км н/о +15.7 +2.1 40 +15 +15 1014.8 991.9
ЮВ 3 {8} 30 км н/о +14.8 +1.7 41 +14 +14 1014.9 992.0
ЮВ 3 28 км н/о +13.7 +2.0 45 +13 +13 1014.7 991.7
ЮВ 2 40 км н/о +12.6 +2.2 49 +12 +12 1014.6 991.5
ЮВ 2 29 км н/о +11.8 +2.3 52 +11 +11 1014.6 991.4
В 3 35 км н/о +11.3 +2.6 55 +10 +10 1014.7 991.5
ЮВ 3-8 {8} 45 км 1/0
[Ci fib]
+12.5 +3.4 54 +11 +13 1014.6 991.5
ЮВ 4 {8} 45 км 1/0
[Ci fib]
+14.2 +4.2 51 +13 +16 1014.7 991.7 +11.3 +20.7
ЮВ 4 45 км 1/0
[Ci fib]
+16.7 +5.6 48 +16 +21 1014.4 991.6
ЮВ 4-9 {9} 45 км 1/0
[Ci fib]
+18.9 +6.4 44 +19 +26 1014.2 991.6
ЮВ 5 {10} 45 км 1/1 1500 м
[Cu hum Ci fib]
+20.4 +7.0 42 +21 +28 комфорт 1013.8 991.3
ЮВ 5-10 {12} 45 км 1/1 1500 м
[Cu med, cong Ci fib]
+22.0 +6.6 37 +23 +30 комфорт 1013.4 991.0
ЮВ 6-12 {16} 45 км 3/3 2000 м
[Cu med, cong Ci fib]
+22.4 +3.5 29 +22 +27 комфорт 1012.8 990.5
ЮВ 7-14 {16} 45 км 4/3 2000 м
[Cu med, cong Ci fib]
+22.7 +3.7 29 +23 +26 комфорт 1012.4 990.1
ЮВ 4-11 {15} 45 км 4/3 2000 м
[Cu med, cong Ci fib]
+23.7 +4.1 28 +23 +29 комфорт 1012.1 989.9
ЮВ 6-12 {12} 45 км 5/5 2000 м
[Cu med, cong Ci fib]
+23.2 +3.7 28 +23 +25 комфорт 1011.9 989.7
ЮВ 5-11 {15} 45 км 4/4 2000 м
[Sc diur, vesp Ci fib]
+23.0 +3.5 28 +23 +25 комфорт 1011.7 989.5
ЮВ 4-10 {12} 45 км 4/3 2000 м
[Sc diur, vesp Ac cuf Ci fib]
+23.5 +3.4 27 +23 +25 комфорт 1011.4 989.2
ЮВ 5-10 {12} 45 км 3/3 2000 м
[Sc diur, vesp Ac cuf Ci fib]
+22.5 +3.1 28 +22 +23 комфорт 1011.4 989.1
ЮВ 3-8 {15} 45 км 3/1 2000 м
[Sc diur, vesp Ac trans Ci fib]
+21.3 +4.8 34 +22 +22 комфорт 1011.7 989.3 +14.2 +23.8
ЮВ 2 40 км 3/1 2000 м
[Sc diur, vesp Ac trans Ci fib]
+19.7 +5.0 38 +21 +21 комфорт 1012.1 989.6
ЮВ 2 40 км 8/5 2000 м
[Sc Ac trans Ci fib]
+19.2 +4.9 39 +20 +20 1012.4 989.9
ЮВ 3 30 км н/о +18.4 +5.2 42 +19 +19 1012.7 990.1
ЮВ 2 40 км н/о +17.5 +5.4 45 +18 +18 1012.8 990.1
ЮВ 2 35 км н/о +16.4 +5.6 49 +17 +17 1013.2 990.4
В 3 29 км н/о +15.8 +5.7 51 +15 +15 1013.2 990.4
В 3 35 км н/о +14.7 +4.7 51 +14 +14 1013.0 990.1
В 2 {7} 30 км н/о +13.9 +3.9 51 +14 +14 1012.8 989.8
В 2 {7} 30 км н/о +12.8 +2.9 51 +12 +12 1012.9 989.8
В 3 35 км н/о +12.7 +2.5 50 +12 +12 1013.4 990.3
В 3 {8} 30 км 4/0
[Ac trans Ci sp]
+13.5 +2.7 48 +13 +14 1013.1 990.1
В 3-8 {10} 30 км 3/0
[Ci sp]
+14.8 +2.7 44 +14 +17 1012.8 989.9 +12.5 +21.3
В 4 {11} 30 км 1/0
[Ci sp]
+16.3 +3.4 42 +16 +21 1012.7 989.9
В 5-10 {10} 30 км 1/0
[Ci sp]
+18.2 +4.4 40 +18 +23 1012.2 989.6
В 5-11 {11} 35 км 1/0
[Ci fib]
+20.2 +4.2 35 +21 +28 комфорт 1011.8 989.3
ЮВ 5-12 {13} 30 км 3/1 2000 м
[Cu hum Cs]
+21.5 +3.6 31 +22 +29 комфорт 1011.1 988.8
ЮВ 5-14 {14} 30 км 3/1 2000 м
[Cu hum Cs]
+22.4 +3.5 29 +22 +30 комфорт 1010.6 988.3
В 5-12 {14} 30 км 5/3 2000 м
[Cu hum Cs]
+22.5 +2.6 27 +22 +28 комфорт 1010.4 988.2
В 5-14 {14} 30 км 8/3 2000 м
[Cu hum Cs]
+22.6 +3.2 28 +22 +27 комфорт 1010.0 987.8
ЮВ 4-11 {11} 30 км 9/3 2000 м
[Sc diur, vesp Cs]
+22.1 +3.2 29 +22 +26 комфорт 1009.9 987.6
ЮВ 5-11 {14} 30 км 9/3 2000 м
[Sc diur, vesp Ac und Cs]
+21.4 +3.1 30 +21 +23 комфорт 1009.9 987.6
ЮВ 5-11 {11} 30 км 9/1 2000 м
[Sc diur, vesp Ac trans Cs]
+20.5 +4.9 36 +21 +22 комфорт 1010.5 988.1
Ю 5-11 {11} 30 км 9/1 2000 м
[Sc diur, vesp Ac und Cs]
+18.0 +5.2 43 +18 +18 1011.4 988.8
ЮВ 4 {14} 35 км 8/0
[Ac trans Cs]
+16.3 +6.1 51 +16 +16 1012.2 989.4 +14.8 +23.1
ЮВ 3 {10} 35 км 6/0
[Ac und Ci fib]
+14.9 +7.0 59 +14 +14 1012.5 989.6
ЮВ 2 40 км 9/0
[Ac und]
+14.7 +7.3 61 +14 +14 1012.3 989.4
ЮВ 3 {10} 40 км н/о +14.5 +6.8 60 +14 +14 1012.0 989.1
ЮВ 3 45 км н/о +13.9 +6.7 62 +13 +13 1012.0 989.1
ЮВ 2 35 км н/о +13.1 +7.1 67 +12 +12 1011.8 988.8
ЮВ 2 {10} 30 км н/о +12.2 +7.5 73 +11 +11 1011.9 988.8
ЮВ 2 35 км н/о +11.7 +7.8 77 +11 +11 1011.7 988.6
ЮВ 2 35 км н/о +11.0 +8.2 83 +10 +10 1011.8 988.6
ЮВ 2 24 км н/о +10.6 +8.7 88 +9 +9 1011.7 988.5
ЮВ 2 21 км н/о +11.0 +9.3 89 +10 +10 1011.8 988.6
ЮВ 3 15 км 8/8 1500 м
[Sc]
+11.4 +9.5 88 +10 +10 1011.9 988.8
ЮВ 3 20 км 9/9 1000 м
[Sc]
+13.1 +9.9 81 +12 +12 1012.0 989.0 +10.6 +16.3
ЮВ 2 20 км 9/9 2000 м
[Sc]
+14.3 +9.9 75 +14 +15 1012.2 989.3
Ю 2 30 км 9/9 1500 м
[Sc]
+15.6 +9.5 67 +16 +17 1012.0 989.2
Ю 3 30 км 9/9 1000 м
[Cu Sc]
+16.3 +8.8 61 +16 +17 1012.1 989.3
ЮВ 2 30 км 9/9 1000 м
[Cu Sc]
+16.3 +8.8 61 +16 +18 1012.1 989.3
Ю 2 30 км слаб. ливневой дождь 10/9 1500 м
[Cb cap]
+17.4 +9.6 60 +18 +19 1011.7 989.0
Ю 4 {9} 30 км в посл. час ливневой дождь 9/6 1500 м
[Cb cap Ac cuf]
+17.5 +7.8 53 +17 +19 1011.8 989.1 0.0
ЮВ 4 40 км 9/5 1000 м
[Sc Ac cuf]
+17.8 +8.4 54 +18 +20 1011.7 989.1
ЮВ 4 35 км 6/3 1000 м
[Cu med, cong Ac cuf]
+18.2 +8.5 53 +18 +22 1011.5 988.9
Ю 3 30 км 5/3 1500 м
[Cu med, cong Ac cuf]
+18.6 +9.1 54 +19 +23 1011.2 988.6
Ю 3 30 км 9/9 1500 м
[Sc]
+17.5 +8.6 56 +18 +18 1011.1 988.5
ЮВ 2 30 км 9/9 1000 м
[Sc]
+17.3 +8.7 57 +18 +18 1011.0 988.3
ЮВ 3 30 км 9/9 1000 м
[Sc]
+16.8 +8.5 58 +17 +17 1011.0 988.3 +13.1 +18.8 0.0
ЮВ 3 30 км 10/9 2000 м
[Sc]
+15.7 +9.1 65 +15 +15 1011.1 988.3
ЮВ 2 30 км 4/0
[Ac trans]
+14.5 +9.5 72 +14 +14 1011.4 988.5
ЮВ 2 30 км н/о +13.9 +9.7 76 +13 +13 1011.4 988.5
ЮВ 3 30 км н/о +13.3 +9.5 78 +12 +12 1011.6 988.6
ЮВ 2 24 км н/о +12.5 +9.7 83 +12 +12 1011.6 988.6
ЮВ 2 35 км н/о +12.7 +9.9 83 +12 +12 1011.2 988.2
ЮВ 2 30 км н/о +12.6 +10.0 84 +12 +12 1011.1 988.1
ЮВ 2 50 км н/о +12.4 +10.1 86 +11 +11 1010.9 987.9
ЮВ 2 35 км н/о +12.3 +10.2 87 +11 +11 1010.8 987.8
ЮВ 2 35 км н/о +12.6 +10.5 87 +12 +12 1011.0 988.0
Ю 1 40 км 8/0
[Ac lent Cs]
+13.5 +10.8 84 +14 +15 1011.2 988.2
Ю 3 45 км 9/1 1500 м
[Sc Ac lent Cs]
+15.4 +10.8 74 +15 +17 1011.2 988.4 +12.0 +16.8 0.0
Ю 3 40 км 9/0
[Ac trans Cs]
+17.0 +11.5 70 +17 +22 1011.3 988.6
Ю 3 40 км 5/3 600 м
[Cu med, cong Cs]
+18.5 +10.6 60 +19 +25 1011.1 988.5
Ю 3 40 км 9/4 1000 м
[Cu med, cong Ac und Ci fib]
+19.6 +10.6 56 +21 +25 комфорт 1011.0 988.5
З 1 40 км 8/4 1000 м
[Cu med, cong Ac trans Ci fib]
+19.7 +10.1 54 +22 +29 комфорт 1010.9 988.4
Ю 2 40 км 6/4 1000 м
[Cu med, cong Ac trans Ci fib]
+21.0 +8.9 46 +23 +31 комфорт 1010.1 987.7
ЮЗ 3 {7} 35 км в посл. час ливневой дождь 10/9 1000 м
[Cb cap]
+15.9 +12.8 82 +15 +16 1011.0 988.2 2
ЮЗ 3 35 км в посл. час гроза {ливн. дождь} 9/5 1000 м
[Cb cap Ac cuf Cs]
+17.9 +13.8 77 +18 +21 1010.7 988.1
З 2 35 км 9/3 1000 м
[Cu med, cong Ac trans Cs]
+18.6 +13.0 70 +20 +24 1010.2 987.7
З 1 35 км {гроза, ливн. дождь} 8/3 1500 м
[Cb cap Ac trans Cs]
+20.7 +12.1 58 +24 +28 комфорт 1009.4 987.0
З 4 30 км гроза, ливневой дождь 9/8 1000 м
[Cb cap Ac cuf Cs]
+17.9 +11.0 64 +18 +18 1009.8 987.2
В 1 {9} 35 км в посл. час гроза {ливн. дождь} 9/5 1000 м
[Cb cap Ac cuf Cs]
+16.5 +13.0 80 +17 +18 1009.6 986.9
ЮЗ 1 {9} 30 км {гроза, ливн. дождь} 8/1 1000 м
[Sc diur, vesp Ac trans Cs]
+16.4 +13.7 84 +17 +17 1009.8 987.1 +15.1 +22.4 3
В 1 30 км 6/1 1000 м
[Sc diur, vesp Ac lent Cs]
+15.1 +11.7 80 +16 +16 1010.1 987.3
В 2 35 км 9/0
[Ac und Cs]
+15.7 +11.1 74 +16 +16 1010.5 987.7
ЮВ 1 35 км н/о +14.9 +11.3 79 +15 +15 1010.7 987.9
Ю 2 24 км н/о +13.7 +11.2 85 +13 +13 1010.9 988.0
Ю 1 40 км н/о +13.3 +11.0 86 +13 +13 1011.1 988.1
Ю 1 30 км н/о +12.8 +10.7 87 +13 +13 1011.2 988.2
Ю 2 30 км н/о +12.5 +9.7 83 +12 +12 1011.0 988.0
Ю 1 30 км н/о +11.4 +9.3 87 +11 +11 1010.8 987.7
Ю 2 35 км н/о +10.5 +8.6 88 +9 +9 1011.3 988.1
ЮВ 1 40 км н/о +10.9 +8.8 87 +11 +11 1011.8 988.6
Ю 2 40 км 1/0
[Ac lent Ci sp]
+12.9 +9.5 80 +12 +14 1012.0 989.0
ЮЗ 2 30 км 6/0
[Ac cast Ci sp]
+14.3 +10.1 76 +14 +16 1012.3 989.4 +10.1 +16.4 2.8
Ю 2 35 км 5/0
[Ac cast Ci sp]
+14.7 +11.8 83 +14 +19 1012.7 989.8
ЮЗ 1 40 км 4/1 600 м
[Cu med, cong Ac cast Ci sp]
+17.7 +11.9 69 +19 +28 1012.4 989.7
Ю 2 35 км 8/1 1000 м
[Sc diur, vesp Ac lent Ci sp]
+20.3 +11.2 56 +23 +30 комфорт 1012.4 989.9
Ю 2 40 км 8/5 1000 м
[Cb calv Ac cuf Ci sp]
+20.8 +9.7 49 +23 +29 комфорт 1012.3 989.9
ЮЗ 2 50 км 8/6 1000 м
[Cb cap Ac cuf Ci sp]
+21.2 +10.1 49 +23 +28 комфорт 1012.1 989.7
Ю 2 50 км 8/5 1500 м
[Cb calv Ac cuf Ci ing]
+22.2 +9.0 43 +24 +29 комфорт 1011.6 989.3
ЮЗ 2 50 км 8/5 1500 м
[Cb calv Ac cuf Ci sp]
+23.4 +9.0 40 +25 +30 комфорт 1011.2 989.0
Ю 2 45 км 8/6 1500 м
[Cb cap Ac cuf Ci sp]
+24.2 +9.4 39 +25 +28 комфорт 1010.9 988.8
СЗ 3 40 км слаб. ливневой дождь 8/8 2000 м
[Cb cap]
+21.9 +10.1 47 +24 +25 комфорт 1011.2 988.9
СВ 3-8 {8} 45 км в посл. час ливневой дождь 8/6 2000 м
[Cb cap Ac cuf Ci ing]
+19.4 +12.4 64 +21 +22 комфорт 1011.5 989.0
В 3 45 км гроза без осадков 8/6 2000 м
[Cb cap Ac cuf Ci ing]
+19.1 +11.4 61 +20 +21 1011.9 989.4
В 2 {9} 20 км слаб. ливневой дождь, в посл. час гроза 8/6 1500 м
[Cb cap Ac cuf Ci ing]
+16.0 +13.7 86 +16 +16 1012.3 989.5 +14.3 +24.2 3
Местоположение метеостанции Зелёна-Гура (Польша): широта 51.93 долгота 15.53 высота над уровнем моря 192 м.
В архиве по умолчанию представлена погода в Зелёна-Гуре за последнюю неделю. Архивные данные за месяц целиком и за предыдущие месяцы, начиная с января 2011 года, Вы можете получить, выбрав интересующий диапазон дат из раскрывающегося списка и нажав кнопку "Найти!".
*Определитесь, кто Вы:
Внимание! Время в таблицах - всемирное. Для получения местного времени необходимо прибавить поправку, которая равна 1 ч.
Некоторые строки с данными для отдельных станций могут быть выделены курсивом. Это означает, что фактические данные отсутствуют по различным причинам, а приведенные значения являются расчетными модельными данными для данного пункта наблюдений.
Смотрите также архив погоды в соседних городах и на ближайших метеорологических станциях:
Партнеры нашего сайта:      
Пояснения к столбцам:
  • Ветер - указаны скорость ветра в м/с - средняя за 10 мин, порывы в срок и между сроками (в фигурных скобках) и направление, откуда дует ветер: С - северный,
  • СВ - северо-восточный, В - восточный, ЮВ - юго-восточный, Ю - южный, ЮЗ - юго-западный, З - западный, СЗ - северо-западный.
  • Видимость - горизонтальная дальность видимости в метрах или километрах. При видимости от 1 до 10 км при отсутствии осадков обычно наблюдается дымка, при ухудшении видимости до 1 км и менее - туман. В сухую погоду видимость может ухудшаться дымом, пылью или мглою.
  • Явления - указаны атмосферные явления, наблюдавшиеся в срок или в последний час перед сроком; фигурными скобками обозначены явления, наблюдавшиеся между сроками (за 1-3 часа до срока); квадратными скобками обозначены град или гололедные отложения с указанием их диаметра в мм.
  • Облачность - указаны через наклонную черту общая и нижняя облачность в баллах и высота нижней границы облаков в метрах; квадратными скобками обозначены формы облаков: Ci - перистые, Cs - перисто-слоистые, Cc - перисто-кучевые, Ac - высококучевые, As - высокослоистые, Sc - слоисто-кучевые, Ns - слоисто-дождевые, Cu - кучевые, Cb - кучево-дождевые. Подробнее классификацию облаков см. в Атласе облаков (PDF).
  • T - Температура воздуха - температура, измеренная на высоте 2 м над землей.
  • Td - Температура точки росы - температура, при понижении до которой содержащийся в воздухе водяной пар достигнет насыщения.
  • f - Относительная влажность воздуха - влажноcть воздуха, измеренная на высоте 2 м над землей.
  • Te - Эффективная температура - температура, которую ощущает одетый по сезону человек в тени. Характеристика душности погоды. При расчете учитывается влияние влажности воздуха и скорости ветра на теплоощущения человека.
  • Tes - Эффективная температура на солнце - температура, которую ощущает человек, с поправкой на солнечный нагрев. Характеристика знойности погоды. Зависит от высоты солнца над горизонтом, облачности и скорости ветра. Ночью, в пасмурную погоду, а также при ветре 12 м/с и более поправка равна нулю.
  • P - Атмосферное давление - приведенное к уровню моря атмосферное давление.
  • Po - Атмосферное давление - измеренное на уровне метеостанции атмосферное давление.
  • Tmin - Минимальная температура - минимум температуры воздуха на высоте 2 м над землей.
  • Tmax - Максимальная температура - максимум температуры воздуха на высоте 2 м над землей.
  • R - Количество осадков - Количество выпавших осадков за период времени, мм. При наведении курсора мыши на число - период времени, за который выпало указанное количество осадков.
  • R24 - Количество осадков - Количество выпавших осадков за 24 часа, мм.
  • S - Снежный покров - Высота снежного покрова, см. При наведении курсора мыши на число - состояние снежного покрова и степень покрытия местности в баллах.